Location: Buchberg
(46.9333°N, 15.8500°E)
Time: 04:31:07
(UTC+00:00)

Cosmos 1842 - Pass Details

Date: 14 July 2020
Orbit: 522 x 536 km, 82.5° (Epoch: 11 August)

Event Time Altitude Azimuth Distance (km) Brightness Sun altitude
Rises 02:17:11 0° 352° (N) 2,697 7.4 -8.6°
Reaches altitude 10° 02:19:21 10° 355° (N) 1,802 6.5 -8.4°
Maximum altitude 02:23:18 70° 80° (E) 575 3.6 -7.9°
Drops below altitude 10° 02:27:14 10° 164° (SSE) 1,789 5.7 -7.4°
Sets 02:29:23 0° 167° (SSE) 2,675 6.5 -7.1°
